This demonstration page uses our WeatherBlox Daily Observations layout. Learn more.

Left ArrowRight Arrow

39.51506, -84.39828

Hourly Observations for March 5, 2020

Temp ( °F °C ) Dew Point ( °F °C ) Humidity (%) Winds ( mph kmh ) Pressure ( in mb ) Visibility ( mi km ) Precip ( " mm )
12:15 am 00:15 Clear 30 -0.9 28 -2.1 92 92 Calm 30.17 1022 10 16.0934 0 0
12:35 am 00:35 Clear 30 -1.1 29 -1.7 96 96 Calm 30.18 1022 10 16.0934 0 0
12:55 am 00:55 Clear 30 -1 28 -2 93 93 Calm 30.2 1023 10 16.0934 0 0
1:15 am 01:15 Clear 29 -1.4 28 -2.2 94 94 Calm 30.19 1022 10 16.0934 0 0
1:35 am 01:35 Clear 29 -1.4 28 -2.4 93 93 Calm 30.19 1022 10 16.0934 0 0
1:55 am 01:55 Clear 29 -1.7 27 -2.6 94 94 Calm 30.19 1022 10 16.0934 0 0
2:15 am 02:15 Clear 29 -1.6 28 -2.3 95 95 Calm 30.18 1022 10 16.0934 0 0
2:35 am 02:35 Clear 27 -2.6 26 -3.5 94 94 Calm 30.18 1022 10 16.0934 0 0
2:55 am 02:55 Clear 28 -2.1 27 -2.9 94 94 Calm 30.17 1022 10 16.0934 0 0
3:15 am 03:15 Clear 26 -3.6 24 -4.5 94 94 Calm 30.19 1022 10 16.0934 0 0
3:35 am 03:35 Clear 26 -3.2 25 -3.8 96 96 Calm 30.18 1022 10 16.0934 0 0
3:55 am 03:55 Clear 26 -3.1 25 -3.8 95 95 Calm 30.19 1022 10 16.0934 0 0
4:15 am 04:15 Clear 25 -3.8 24 -4.6 94 94 Calm 30.2 1023 10 16.0934 0 0
4:35 am 04:35 Clear 28 -2.3 26 -3.2 94 94 NNE 3 6 30.2 1023 10 16.0934 0 0
4:55 am 04:55 Clear 26 -3.1 25 -3.8 95 95 Calm 30.2 1023 10 16.0934 0 0
5:15 am 05:15 Clear 27 -3 26 -3.6 96 96 N 3 6 30.21 1023 10 16.0934 0 0
5:35 am 05:35 Clear 27 -3 25 -3.7 95 95 Calm 30.21 1023 10 16.0934 0 0
5:55 am 05:55 Clear 26 -3.4 25 -4.1 95 95 N 3 6 30.2 1023 10 16.0934 0 0
6:15 am 06:15 Clear 26 -3.4 25 -4 96 96 Calm 30.2 1023 10 16.0934 0 0
6:35 am 06:35 Clear 25 -3.9 24 -4.5 96 96 Calm 30.2 1023 10 16.0934 0 0
6:55 am 06:55 Clear 24 -4.7 22 -5.3 96 96 Calm 30.2 1023 7 11.26538 0 0
7:15 am 07:15 Sunny 25 -4.1 24 -4.5 97 97 Calm 30.2 1023 10 16.0934 0 0
7:35 am 07:35 Sunny 26 -3.6 25 -4.1 96 96 Calm 30.2 1023 10 16.0934 0 0
7:55 am 07:55 Sunny 26 -3.1 26 -3.6 96 96 NNE 3 6 30.19 1022 10 16.0934 0 0
8:15 am 08:15 Sunny 28 -2.4 27 -3 96 96 Calm 30.2 1023 10 16.0934 0 0
8:35 am 08:35 Sunny 29 -1.4 28 -2.2 94 94 Calm 30.19 1022 10 16.0934 0 0
8:55 am 08:55 Sunny 33 0.3 30 -1.2 90 90 Calm 30.17 1022 10 16.0934 0 0
9:15 am 09:15 Sunny 35 1.6 30 -1.1 82 82 Calm 30.17 1022 10 16.0934 0 0
9:35 am 09:35 Sunny 40 4.3 29 -1.5 66 66 SSE 8 13 30.15 1021 10 16.0934 0 0
9:55 am 09:55 Sunny 42 5.5 29 -1.9 59 59 S 6 9 30.14 1021 10 16.0934 0 0
10:15 am 10:15 Sunny 43 6 26 -3.3 52 52 S 6 9 30.15 1021 10 16.0934 0 0
10:35 am 10:35 Sunny 44 6.6 24 -4.3 46 46 S 8 13 30.15 1021 10 16.0934 0 0
10:55 am 10:55 Sunny 45 7.3 25 -3.9 45 45 S 12 19 30.15 1021 10 16.0934 0 0
11:15 am 11:15 Sunny 46 7.9 25 -3.7 44 44 S 8 13 30.14 1021 10 16.0934 0 0
11:35 am 11:35 Sunny 47 8.4 25 -3.8 42 42 SSW 7 11 30.13 1020 10 16.0934 0 0
11:55 am 11:55 Sunny 47 8.5 25 -3.7 42 42 SW 7 11 30.12 1020 10 16.0934 0 0
12:15 pm 12:15 Sunny 48 9 26 -3.1 43 43 SW 6 9 30.1 1019 10 16.0934 0 0
12:35 pm 12:35 Sunny 50 10.1 27 -2.9 40 40 SW 5 7 30.08 1019 10 16.0934 0 0
12:55 pm 12:55 Sunny 51 10.7 26 -3.4 37 37 S 7 11 30.07 1018 10 16.0934 0 0
1:15 pm 13:15 Sunny 51 10.8 26 -3.5 37 37 SSW 9 15 30.06 1018 10 16.0934 0 0
1:35 pm 13:35 Sunny 53 11.9 26 -3.2 35 35 S 10 17 30.03 1017 10 16.0934 0 0
1:55 pm 13:55 Sunny 55 12.5 25 -3.7 32 32 SW 10 17 30.02 1017 10 16.0934 0 0
2:15 pm 14:15 Sunny 54 12.3 25 -4 32 32 SSE 6 9 30 1016 10 16.0934 0 0
2:35 pm 14:35 Sunny 56 13.2 22 -5.3 27 27 S 10 17 29.98 1015 10 16.0934 0 0
2:55 pm 14:55 Sunny 56 13.4 22 -5.3 27 27 S 12 19 29.97 1015 10 16.0934 0 0
3:15 pm 15:15 Sunny 57 14.1 22 -5.5 25 25 SSW 9 15 29.96 1015 10 16.0934 0 0
3:35 pm 15:35 Sunny 58 14.3 22 -5.7 25 25 SSW 13 20 29.96 1015 10 16.0934 0 0
3:55 pm 15:55 Sunny 58 14.5 22 -5.8 24 24 SSW 9 15 29.95 1014 10 16.0934 0 0
4:15 pm 16:15 Sunny 59 15 21 -6.3 23 23 SW 12 19 29.94 1014 10 16.0934 0 0
4:35 pm 16:35 Sunny 59 15 22 -5.8 23 23 SW 10 17 29.93 1013 10 16.0934 0 0
4:55 pm 16:55 Sunny 59 14.8 19 -7.5 21 21 SW 16 26 29.93 1013 10 16.0934 0 0
5:15 pm 17:15 Sunny 58 14.5 19 -7 22 22 SW 13 20 29.93 1013 10 16.0934 0 0
5:35 pm 17:35 Sunny 57 14 20 -6.9 23 23 SSW 14 22 29.93 1014 10 16.0934 0 0
5:55 pm 17:55 Sunny 56 13.5 21 -6.3 25 25 SW 12 19 29.93 1014 10 16.0934 0 0
6:15 pm 18:15 Sunny 54 12 22 -5.5 29 29 SW 7 11 29.93 1014 10 16.0934 0 0
6:35 pm 18:35 Clear 51 10.6 21 -6.1 31 31 WSW 5 7 29.94 1014 10 16.0934 0 0
6:55 pm 18:55 Clear 49 9.2 24 -4.7 37 37 WSW 3 6 29.94 1014 10 16.0934 0 0
7:15 pm 19:15 Clear 45 7 28 -2.2 52 52 WNW 6 9 29.96 1014 10 16.0934 0 0
7:35 pm 19:35 Clear 42 5.4 26 -3.2 54 54 Calm 29.95 1014 10 16.0934 0 0
7:55 pm 19:55 Clear 41 5 29 -1.7 62 62 Calm 29.96 1015 10 16.0934 0 0
8:15 pm 20:15 Cloudy 49 9.2 26 -3.4 41 41 W 12 19 29.95 1014 10 16.0934 0 0
8:35 pm 20:35 Mostly Cloudy 51 10.7 25 -3.7 36 36 W 9 15 29.95 1014 10 16.0934 0 0
8:55 pm 20:55 Cloudy with Light Rain 51 10.7 31 -0.4 47 47 WNW 17 28 29.97 1015 10 16.0934 0 0
9:15 pm 21:15 Cloudy with Light Rain 49 9.5 35 1.9 59 59 WNW 7 11 29.97 1015 10 16.0934 0 0
9:35 pm 21:35 Cloudy 49 9.2 36 2 61 61 W 5 7 29.97 1015 10 16.0934 0 0
9:55 pm 21:55 Cloudy 48 9.1 35 1.8 61 61 W 3 6 29.97 1015 10 16.0934 0 0
10:15 pm 22:15 Partly Cloudy 48 9 35 1.7 61 61 W 7 11 29.97 1015 10 16.0934 0 0
10:35 pm 22:35 Partly Cloudy 48 9.1 34 1.1 58 58 W 8 13 29.97 1015 10 16.0934 0 0
10:55 pm 22:55 Clear 48 8.8 33 0.3 56 56 NW 9 15 29.97 1015 10 16.0934 0 0
11:15 pm 23:15 Clear 47 8.1 30 -0.9 53 53 WNW 8 13 29.96 1015 10 16.0934 0 0
11:35 pm 23:35 Clear 44 6.8 30 -1 58 58 W 6 9 29.98 1015 10 16.0934 0 0
11:55 pm 23:55 Clear 44 6.8 29 -1.8 55 55 WNW 9 15 29.97 1015 10 16.0934 0 0

Powered by AerisWeather